Regional Weather Roundup
Issued by NWS Albany, NY

Home | Current Version | Previous Version | Graphics & Text | Print | Product List | Glossary Off
Versions: 1 2 3 4 5 6 7 8 9 10 11 12 13 14 15 16 17 18 19 20 21 22 23 24 25 26 27 28 29 30 31 32 33 34 35 36 37 38 39 40 41 42 43 44 45 46 47 48 49 50

000
ASUS41 KALY 212010
RWRALY

NEW YORK STATE HOURLY WEATHER ROUNDUP
NATIONAL WEATHER SERVICE ALBANY NY
400 PM EDT THU AUG 21 2014

NOTE: "FAIR" INDICATES FEW OR NO CLOUDS BELOW 12,000 FEET WITH NO
SIGNIFICANT WEATHER AND/OR NO OBSTRUCTIONS TO VISIBILITY.

NYZ032-033-038>043-046>054-057>066-NYZ062>081-212100-
EAST


CITY           SKY/WX    TMP DP  RH WIND       PRES   REMARKS
ALBANY         LGT RAIN  75  65  70 SE6       29.99F
GLENS FALLS    CLOUDY    70  66  87 NE3       30.01S
POUGHKEEPSIE   CLOUDY    79  65  62 SE7       29.99F
NEWBURGH       PTSUNNY   81  64  57 S9        30.02F
MONTGOMERY     PTSUNNY   81  63  54 S10       30.00F
WHITE PLAINS   MOSUNNY   78  63  59 SE12      30.03F
ISLIP          PTSUNNY   75  63  66 SE10      30.03F
NEW YORK CITY  PTSUNNY   79  57  46 S14       30.02F
CENTRAL PARK   SUNNY     78  59  51 S9        30.05F
$$

NYZ005>009-017-018-044>046-055-056-212100-
CENTRAL


CITY           SKY/WX    TMP DP  RH WIND       PRES   REMARKS
FULTON         PTSUNNY   79  67  66 SW3       29.94F
SYRACUSE       CLOUDY    76  68  76 NE8       29.95R
ROME           MOSUNNY   76  69  79 E6        29.95F
ELMIRA         PTSUNNY   84  66  54 SW12      29.94F
BINGHAMTON     PTSUNNY   71  64  78 E6        29.99S THUNDER
MONTICELLO     CLOUDY    72  70  94 SE9       30.04F
$$

NYZ026>034-041>043-212100-
NORTH


CITY           SKY/WX    TMP DP  RH WIND       PRES   REMARKS
WATERTOWN      MOSUNNY   79  67  66 W9        29.93F
FORT DRUM      NOT AVBL
MASSENA        HVY RAIN  67  65  93 S10       29.99R FOG
SARANAC LAKE   CLOUDY    71  62  73 S13       29.99S
PLATTSBURGH    CLOUDY    70  62  76 SE14      30.01F
$$

NYZ001>004-010>016-019>021-212100-
WEST


CITY           SKY/WX    TMP DP  RH WIND       PRES   REMARKS
NIAGARA FALLS  PTSUNNY   78  64  61 SW9G20    29.94S
BUFFALO        MOSUNNY   78  60  53 SW17      29.96S
DUNKIRK        SUNNY     76  67  73 W15G23    29.97F
JAMESTOWN      MOSUNNY   77  64  65 W9        30.00F
WELLSVILLE     SUNNY     81  61  50 W13       30.03S
ROCHESTER      CLOUDY    76  68  76 NE8       29.94S
PENN YAN       MOSUNNY   74  67  78 NE5       29.97S
$$

             KEY
       WCI = WIND CHILL INDEX
       VSB = VISIBILITY
       HX  = HEAT INDEX
$$


USA.gov is the U.S. government's official web portal to all federal, state and local government web resources and services.